SCP
1 1 1 1 1 1 1 1 1 0 0 1 1 1 1 1 0 0 0 0 0 1 1 1 1 1 1 1 1 1 0 0 0 0 0 0 0 0 0 0 0 0 0
1 1 2 2 2 2 2 1 1 1 1 1 1 1 1 1 1 1 0 0 0 1 1 1 1 2 2 1 1 1 1 0 0 0 0 0 0 0 0 0 0 0 0
2 3 3 4 4 4 4 3 2 1 1 1 1 1 1 1 1 1 1 1 1 1 1 1 2 2 2 2 2 1 1 1 0 0 0 0 0 0 0 0 0 0 0
3 4 5 6 6 7 7 7 4 2 1 1 2 2 2 2 2 2 1 1 1 1 2 2 2 2 2 2 2 2 1 1 1 0 0 0 0 0 0 0 0 0 0
4 4 5 6 7 7 8 8 5 2 1 2 2 2 2 2 3 3 3 2 2 2 2 2 2 2 2 2 2 2 1 1 1 0 0 0 0 0 0 0 0 0 0
3 3 3 4 5 6 7 7 5 2 1 2 3 3 3 3 4 4 3 3 2 2 2 2 2 2 2 2 1 1 1 1 0 0 0 0 0 0 0 0 0 0 0
1 1 2 2 3 4 5 4 3 1 1 2 3 3 3 4 4 4 3 2 2 2 2 2 2 1 1 1 1 1 0 0 0 0 0 0 0 0 0 0 0 0 0
1 1 1 1 2 2 2 2 2 1 1 2 2 3 3 3 3 3 3 2 2 2 1 1 1 1 1 1 0 0 0 0 0 0 0 0 0 0 0 0 0 0 0
1 1 1 1 1 1 1 1 1 1 1 3 3 3 2 2 2 2 2 2 1 1 1 1 1 1 1 1 0 0 0 0 0 0 0 0 0 0 0 0 0 0 0
1 1 1 1 1 1 1 1 1 1 2 4 5 4 2 1 1 1 1 1 1 1 1 1 1 1 1 0 0 0 0 0 0 0 0 0 0 0 0 0 0 0 0
1 1 1 1 1 1 1 1 1 2 3 4 5 3 2 1 1 1 1 0 0 0 0 0 0 0 0 0 0 0 0 0 0 0 0 0 0 0 0 0 0 0 0
1 1 1 1 1 1 1 1 2 3 4 4 3 2 1 1 0 0 0 0 0 0 0 0 1 1 1 0 0 0 0 0 0 0 0 0 0 0 0 1 1 1 1
2 1 1 1 1 1 2 2 3 3 4 3 3 2 2 1 1 1 1 0 0 0 1 1 1 1 1 1 0 0 0 0 0 0 1 1 1 0 1 1 1 1 1
2 2 1 1 1 2 2 2 3 4 4 3 3 3 3 2 1 1 1 1 1 1 1 1 1 1 1 1 1 1 0 0 0 0 1 1 1 1 1 1 1 1 1
2 2 2 1 2 2 2 3 4 5 5 4 4 4 4 3 2 1 1 1 1 1 1 1 1 1 1 1 1 1 1 0 0 0 0 1 1 0 0 1 1 1 1
2 2 2 2 2 2 2 3 4 6 6 5 4 4 4 3 2 2 2 2 1 1 1 2 2 2 1 1 1 1 1 1 0 0 1 1 0 0 0 0 1 1 1
3 2 2 2 2 3 3 4 5 6 6 5 4 4 4 3 2 2 2 2 2 2 2 2 2 2 1 1 0 0 0 1 1 1 1 1 1 0 0 0 0 0 1
4 4 3 2 3 4 5 5 6 6 5 3 3 3 3 2 2 3 3 3 3 3 3 3 3 3 2 1 0 0 0 1 1 1 1 1 1 0 0 1 0 0 1
4 4 3 3 4 6 8 7 6 5 4 3 2 2 2 2 3 3 3 3 3 3 3 3 3 3 2 1 1 0 1 1 1 1 1 1 1 0 0 1 0 0 0
3 3 3 3 4 7 9 9 7 5 4 3 3 3 3 3 3 3 3 3 4 4 4 4 3 3 2 2 1 1 1 2 2 2 2 1 1 0 0 1 1 0 0
3 3 3 3 4 7 9 9 8 7 5 4 3 3 3 3 4 4 4 4 4 4 4 4 4 3 2 1 1 0 1 2 2 2 3 2 2 1 0 0 1 1 0
3 3 3 4 5 7 9 9 9 8 6 5 4 4 3 3 4 5 5 5 6 6 5 5 4 3 3 2 1 0 0 1 2 2 2 2 1 1 0 0 0 1 0
4 4 4 5 6 8 10 10 10 9 7 6 6 5 5 6 6 6 6 7 7 7 7 6 5 4 3 3 2 1 0 0 1 2 2 1 1 0 0 0 0 1 1
4 4 4 5 6 9 11 12 11 9 7 7 7 9 10 11 10 9 8 8 8 8 8 7 5 4 3 2 2 2 1 1 1 1 1 1 1 1 1 1 1 1 1
5 5 5 6 7 9 11 12 12 10 9 10 11 13 15 16 14 11 9 9 8 8 8 7 5 4 3 2 2 2 1 1 1 1 1 1 1 2 3 3 3 3 3
7 7 7 7 7 9 11 10 10 11 12 12 14 16 18 19 17 13 10 9 8 8 7 7 5 4 2 1 1 1 1 1 1 1 1 2 2 3 4 4 5 5 4
Wind_Speed
5 3 4 4 4 3 2 2 2 1 1 1 2 2 1 1 2 2 2 3 3 3 3 3 3 3 3 3 4 3 4 3 2 3 3 3 3 2 2 1 1 2 1
4 4 4 4 4 4 3 3 2 2 1 1 1 2 2 1 1 2 2 2 2 2 3 3 3 3 3 3 3 3 3 2 2 2 2 2 2 2 2 1 1 2 1
7 6 5 5 4 5 4 4 3 2 2 2 2 3 3 2 2 2 1 2 2 2 2 3 3 3 3 3 3 3 4 2 1 1 2 2 1 0 1 2 1 1 1
7 6 6 6 6 6 4 4 3 2 2 2 3 4 3 2 1 1 1 2 3 3 3 3 3 3 3 3 3 3 2 3 2 1 1 2 2 2 0 1 1 2 2
9 9 9 8 6 5 5 4 3 2 2 3 3 3 2 2 2 2 2 2 2 2 2 3 3 3 2 3 3 2 2 2 2 2 2 2 2 2 2 0 1 1 2
10 9 7 6 5 5 4 4 4 3 2 3 3 3 4 3 3 2 2 1 1 2 2 2 2 2 2 2 2 2 2 2 2 2 2 2 2 2 2 1 0 1 1
10 9 9 8 7 7 6 5 5 4 3 3 3 3 3 3 4 3 2 2 1 1 1 2 2 2 2 2 2 2 1 2 2 2 2 1 1 2 2 3 1 0 1
10 10 11 10 9 8 7 7 6 5 4 4 4 3 3 3 2 3 2 2 2 1 1 2 2 1 1 2 2 2 1 1 2 2 2 2 1 2 3 3 3 2 1
10 10 10 10 9 9 9 8 8 6 5 5 4 3 3 3 3 3 2 2 2 2 2 2 2 2 2 2 2 2 1 1 1 1 2 1 1 1 2 2 3 3 2
9 9 9 9 9 9 8 7 7 7 6 5 5 4 4 3 3 3 3 3 2 2 3 2 2 2 2 2 2 2 1 2 1 1 2 1 1 1 1 2 2 2 3
9 9 8 8 8 7 7 7 7 6 6 6 5 4 4 4 4 3 3 3 3 3 3 2 2 2 2 2 2 2 2 2 2 2 2 1 2 1 1 2 2 2 3
7 6 6 6 7 7 7 7 7 7 7 6 5 5 4 4 4 4 3 3 3 3 3 3 3 2 2 2 3 2 2 2 2 1 2 1 2 2 1 2 2 2 2
5 5 5 6 7 8 7 7 7 7 6 6 6 6 5 5 5 4 4 4 4 3 3 3 3 2 2 2 3 3 2 2 1 1 1 1 2 1 1 2 2 2 2
5 6 6 6 7 7 7 7 7 7 7 7 7 7 6 6 5 5 4 4 4 4 3 3 3 2 2 2 3 3 3 2 2 1 1 1 2 2 2 2 2 3 3
5 6 7 6 6 6 6 6 7 7 7 7 7 7 6 5 5 5 4 4 4 4 3 3 2 2 2 2 3 3 3 3 2 2 1 1 2 2 2 2 3 4 3
6 6 6 6 7 7 7 7 7 7 8 8 7 6 6 6 5 5 5 4 4 3 3 3 3 2 2 3 4 4 3 3 3 2 1 2 2 3 3 3 3 4 4
5 6 6 7 7 8 8 8 8 7 8 8 7 7 7 6 6 6 5 5 4 4 4 3 3 3 2 4 5 5 4 3 2 2 1 1 2 3 2 3 3 2 2
5 5 5 6 5 5 6 6 6 7 8 8 7 7 7 7 6 6 5 5 4 4 3 3 4 3 3 4 5 6 4 3 2 1 2 2 1 1 2 3 2 2 1
5 5 5 6 5 6 6 7 7 7 7 8 8 8 8 8 7 6 6 5 4 4 4 3 4 4 3 4 6 6 3 2 1 1 1 2 1 1 3 3 2 1 1
3 3 3 4 5 5 6 7 7 7 8 8 8 7 7 8 8 7 6 4 4 4 4 3 3 4 3 4 6 7 4 3 2 1 1 1 2 2 3 3 3 2 1
2 2 2 4 5 6 7 7 7 8 7 6 6 6 7 7 7 6 5 5 4 4 4 4 3 3 3 4 6 6 4 4 3 2 1 1 2 3 3 3 3 3 2
1 1 2 3 3 5 7 7 7 6 5 6 6 6 6 6 6 6 5 5 6 5 4 4 3 2 3 4 5 7 6 5 4 3 2 2 4 4 3 2 3 3 3
1 1 2 2 3 4 6 7 5 5 5 6 6 6 6 5 6 6 6 5 5 5 4 4 4 3 2 2 4 6 7 6 4 2 3 3 3 3 2 2 4 4 3
1 0 1 2 2 3 4 4 4 5 5 6 6 5 5 5 5 5 5 6 6 6 6 5 5 3 3 3 3 3 3 4 3 2 2 3 3 2 2 2 2 2 2
1 1 2 3 3 3 3 4 4 5 5 5 5 5 5 5 4 4 4 5 5 6 7 6 5 5 5 5 7 6 4 4 3 3 2 1 1 1 1 1 1 1 2
1 1 1 2 2 2 3 3 5 6 7 5 5 4 4 4 4 4 2 0 2 4 6 6 6 4 5 7 8 8 7 7 7 4 3 3 3 3 3 3 2 2 2
Wind_Direction
212 187 175 166 152 154 154 162 158 143 103 82 79 77 67 58 57 73 85 92 102 108 111 113 108 108 114 123 125 120 114 109 110 97 75 51 51 56 46 29 14 5 356
198 191 183 174 171 175 175 170 175 161 143 123 116 116 108 92 86 72 67 73 94 111 125 122 120 116 116 114 119 120 116 117 112 116 104 56 24 19 30 25 10 353 1
197 195 189 187 179 183 187 184 182 168 156 132 102 90 72 59 61 60 64 55 77 88 102 119 121 121 127 128 127 132 134 138 115 105 126 133 173 337 7 18 27 19 29
191 190 187 187 191 193 183 175 166 156 145 130 130 134 130 128 135 117 94 65 68 81 89 103 114 117 120 127 135 126 136 141 148 108 84 117 142 135 39 351 16 31 36
191 192 193 192 191 182 174 166 150 153 147 136 144 138 130 134 114 98 92 76 66 75 89 101 110 116 126 133 130 125 130 139 146 141 125 106 89 112 140 225 346 22 24
192 193 190 180 177 171 167 158 154 171 163 149 145 147 147 145 130 123 118 97 82 73 82 105 109 113 123 127 130 128 133 144 141 143 146 151 150 158 148 156 160 9 7
188 187 184 182 179 175 176 171 169 180 173 159 158 164 162 155 156 159 152 139 117 106 92 111 113 117 125 129 127 128 139 150 156 171 179 178 173 155 146 143 151 100 2
187 190 190 187 186 184 181 178 181 185 178 172 173 169 162 156 159 160 156 156 154 157 125 124 126 120 119 130 132 133 160 143 161 179 175 172 183 164 159 156 149 128 50
190 191 188 188 187 185 187 187 185 186 184 181 170 166 164 158 158 152 150 150 149 143 124 119 120 116 109 109 119 115 120 117 127 150 150 147 155 149 164 162 163 154 154
187 186 187 190 189 187 185 183 184 187 185 180 179 176 172 167 159 150 152 152 149 134 126 125 119 115 114 116 111 109 106 112 105 113 112 111 118 126 134 149 147 150 151
187 187 188 188 183 177 177 182 183 179 178 182 179 168 166 161 153 153 158 157 149 143 142 140 133 125 117 114 112 108 103 102 88 93 114 116 114 124 130 125 125 127 132
186 182 177 172 175 180 183 185 184 183 184 177 170 169 162 154 157 161 162 152 149 148 146 140 134 137 133 130 130 128 111 108 106 106 115 122 121 114 130 130 135 143 149
169 166 165 174 184 187 186 186 186 185 178 169 167 166 166 166 171 169 163 153 149 144 140 141 145 148 147 143 145 141 130 122 120 122 131 139 126 125 134 138 139 142 135
170 172 179 185 188 186 184 184 185 179 172 170 171 175 179 179 176 168 162 161 158 155 156 156 159 162 155 151 150 140 130 118 101 92 103 123 143 161 154 140 140 136 129
179 184 189 192 186 179 180 182 180 175 172 170 178 184 177 170 164 162 165 162 164 168 164 158 158 159 161 167 155 148 141 131 112 82 74 91 112 121 132 141 146 144 144
201 199 195 189 189 187 184 179 180 176 171 173 182 178 168 165 168 168 164 160 164 163 156 162 165 172 183 165 158 152 144 138 133 120 78 74 82 94 104 116 131 148 160
206 201 200 197 197 193 184 182 182 171 170 176 178 175 171 169 174 173 163 169 173 165 165 171 170 178 184 162 155 154 147 145 147 142 126 101 76 92 100 96 97 104 143
207 206 201 198 195 184 176 172 165 167 172 177 180 177 172 174 171 166 170 175 172 173 179 182 179 173 186 166 157 150 144 134 136 142 146 135 103 106 113 105 92 80 73
212 209 204 190 178 176 168 157 163 166 171 180 185 181 174 171 171 175 179 178 170 173 177 174 174 175 187 172 163 150 140 136 147 155 146 153 154 140 129 126 123 90 26
204 196 194 169 168 175 161 160 174 177 186 188 185 177 172 173 176 180 176 172 171 177 170 171 181 182 186 180 169 159 157 160 170 151 136 155 166 152 144 151 154 164 231
202 174 169 175 182 172 160 170 179 194 195 180 171 167 168 170 167 165 163 163 166 167 172 176 184 183 185 180 174 171 172 179 178 178 196 203 174 168 162 163 178 192 174
176 166 171 182 176 168 166 178 196 194 168 161 165 169 166 168 164 159 163 167 163 170 180 182 188 200 198 188 184 180 182 178 180 197 204 196 178 176 173 176 174 154 136
214 189 169 171 174 174 174 186 194 166 157 159 167 167 167 168 166 171 175 175 172 175 186 189 199 208 205 198 191 189 188 182 184 194 190 185 174 162 158 162 160 154 149
234 227 153 172 197 186 181 185 171 162 158 164 167 164 166 168 169 174 186 186 184 185 185 193 202 204 199 197 183 183 187 187 187 186 175 164 152 144 143 138 153 169 173
246 207 193 192 206 186 181 175 161 153 154 158 166 165 168 172 172 178 188 194 199 193 189 196 193 192 206 210 192 181 185 189 187 156 135 131 134 151 161 166 168 171 170
205 178 180 187 205 181 177 176 166 158 158 164 170 172 174 179 178 173 163 155 206 202 200 196 190 203 200 181 184 187 186 180 164 152 177 190 189 191 196 198 199 198 199